Location: Capvern
(43.1036°N, 0.3160°E)
Time: 23:20:00
(UTC+00:00)

Cosmos 371 Rocket - Pass Details

Date: 16 October 2021
Orbit: 684 x 699 km, 74.0° (Epoch: 04 December)

Event Time Altitude Azimuth Distance (km) Brightness Sun altitude
Rises 19:22:21 0° 197° (SSW) 3,048 6.7 -24.1°
Reaches altitude 10° 19:24:39 10° 196° (SSW) 2,138 5.9 -24.5°
Enters shadow 19:28:50 67° 185° (S) 752 3.3 -25.3°
